(110187) = 1995 SO89 = 2001 SE178

Discovered at Socorro on 2001-09-17 by LINEAR.

Orbit

Orbit type: Main Belt

Note: WebGL enabled browser required.

epoch2023-09-13.0
epoch JD2460200.5
perihelion date2023-08-21.67655
perihelion JD2460178.17655
argument of perihelion (°)178.29427
ascending node (°)149.73019
inclination (°)4.33228
eccentricity0.1630146
perihelion distance (AU)2.6474460
Tisserand w.r.t. Jupiter3.2
ΔV w.r.t. Earth (km/sec)10.3
semimajor axis (AU)3.1630730
mean anomaly (°)3.91112
mean daily motion (°/day)0.17520240
aphelion distance (AU)3.679
period (years)5.63
P-vector [x]0.84831715
P-vector [y]-0.48668619
P-vector [z]-0.20855350
Q-vector [x]0.52811749
Q-vector [y]0.80604834
Q-vector [z]0.26716660
absolute magnitude15.13
phase slope0.15
uncertainty0
referenceMPEC 2024-A48
observations used806
oppositions18
arc length (days)10304
first opposition used1995
last opposition used2023
residual rms (arc-secs)0.78
perturbers coarse indicatorM-v
perturbers precise indicator003Ek
first observation date used1995-08-25.0
last observation date used2023-11-10.0
computer nameMPCLINUX
Minimum Orbit Intersection Distances (in AU)
for orbit epoch: 2460200.5, reference: E2024-A48
Mercury2.23889
Venus1.92113
Earth1.6355
Mars1.26626
Jupiter1.66432
Saturn5.51819
Uranus14.7833
Neptune26.6501

Observations

823 total observations over interval: 1995 08 25.23229 – 2023 11 10.136311
These data are available for download (format description).

Date (UT) J2000 RA J2000 Dec Magn Location Ref
1995 08 25.23229 23 57 56.11 -02 30 18.5 20.0 V 809 – European Southern Observatory, La Silla MPS 41962
1995 08 26.22674 23 57 27.28 -02 35 34.0 19.4 V 809 – European Southern Observatory, La Silla MPS 41962
1995 08 28.22812 23 56 25.82 -02 46 27.6 19.5 V 809 – European Southern Observatory, La Silla MPS 41962
1995 08 29.29965 23 55 51.55 -02 52 22.7 19.2 V 809 – European Southern Observatory, La Silla MPS 41962
1995 09 01.29514 23 54 09.67 -03 09 33.3 20.4 V 809 – European Southern Observatory, La Silla MPS 41962
1995 09 19.20694 23 42 12.42 -04 59 45.4 19.1 V 809 – European Southern Observatory, La Silla MPS 41962
1995 09 20.18264 23 41 31.29 -05 05 41.6 18.1 V 809 – European Southern Observatory, La Silla MPC 46830
1995 09 22.24861 23 40 04.70 -05 18 03.1 19.4 V 809 – European Southern Observatory, La Silla MPS 41962
1995 09 23.16528 23 39 26.79 -05 23 27.5 19.5 V 809 – European Southern Observatory, La Silla MPS 41962
1995 09 24.15451 23 38 45.96 -05 29 12.6 18.3 V 809 – European Southern Observatory, La Silla MPS 41962
2001 08 24.41732 02 30 50.18 +10 36 19.9 19.9   704 – Lincoln Laboratory ETS, New Mexico MPS 43983
2001 08 24.43027 02 30 50.49 +10 36 18.3 20.3   704 – Lincoln Laboratory ETS, New Mexico MPS 43983
2001 08 24.44332 02 30 50.69 +10 36 17.4 20.4   704 – Lincoln Laboratory ETS, New Mexico MPS 43983
2001 08 24.45627 02 30 50.96 +10 36 17.9 20.2   704 – Lincoln Laboratory ETS, New Mexico MPS 43983
2001 09 17.34654 02 31 56.77 +09 49 44.8 20.0   704 – Lincoln Laboratory ETS, New Mexico MPS 36718
2001 09 17.36055 02 31 56.56 +09 49 41.6 19.9   704 – Lincoln Laboratory ETS, New Mexico MPS 36718
2001 09 17.38828 02 31 56.09 +09 49 35.7 20.2   704 – Lincoln Laboratory ETS, New Mexico MPS 36718
2001 09 21.34521 02 30 49.21 +09 35 52.9 19.4   704 – Lincoln Laboratory ETS, New Mexico MPS 36718
2001 09 21.35924 02 30 48.93 +09 35 49.7 19.7   704 – Lincoln Laboratory ETS, New Mexico MPS 36718
2001 09 21.37375 02 30 48.55 +09 35 46.8 19.7   704 – Lincoln Laboratory ETS, New Mexico MPS 36718
2001 09 21.38822 02 30 48.27 +09 35 44.7 20.1   704 – Lincoln Laboratory ETS, New Mexico MPS 36718
2001 10 14.22288 02 18 18.43 +07 54 06.4 18.8 R 699 – Lowell Observatory-LONEOS MPS 43983
2001 10 14.25098 02 18 17.21 +07 53 55.7   699 – Lowell Observatory-LONEOS MPS 43983
2001 10 14.27915 02 18 15.95 +07 53 49.2   699 – Lowell Observatory-LONEOS MPS 43983
2001 10 14.30737 02 18 14.60 +07 53 41.4   699 – Lowell Observatory-LONEOS MPS 43983
2001 10 17.25233 02 16 05.15 +07 39 10.2 19.1   704 – Lincoln Laboratory ETS, New Mexico MPS 40610
2001 10 17.26835 02 16 04.38 +07 39 04.8 19.1   704 – Lincoln Laboratory ETS, New Mexico MPS 40610
2001 10 17.28433 02 16 03.63 +07 39 01.0 19.2   704 – Lincoln Laboratory ETS, New Mexico MPS 40610
2001 10 17.30032 02 16 02.83 +07 38 56.6 19.6   704 – Lincoln Laboratory ETS, New Mexico MPS 40610
2001 10 17.31666 02 16 02.15 +07 38 51.3 19.4   704 – Lincoln Laboratory ETS, New Mexico MPS 40610
2001 10 18.35378 02 15 15.44 +07 33 44.6 19.3   644 – Palomar Mountain/NEAT MPS 43983
2001 10 18.37691 02 15 14.36 +07 33 37.8 19.5   644 – Palomar Mountain/NEAT MPS 43983
2001 10 18.39727 02 15 13.40 +07 33 32.1 19.3   644 – Palomar Mountain/NEAT MPS 43983
2001 10 20.34194 02 13 44.81 +07 24 00.4 18.5   704 – Lincoln Laboratory ETS, New Mexico MPS 40610
2001 10 20.35828 02 13 44.04 +07 23 55.3 19.0   704 – Lincoln Laboratory ETS, New Mexico MPS 40610
2001 10 20.37463 02 13 43.27 +07 23 50.4 19.0   704 – Lincoln Laboratory ETS, New Mexico MPS 40610
2001 10 20.39099 02 13 42.52 +07 23 45.4 18.7   704 – Lincoln Laboratory ETS, New Mexico MPS 40610
2001 10 20.40735 02 13 41.72 +07 23 40.7 19.0   704 – Lincoln Laboratory ETS, New Mexico MPS 40610
2001 10 25.28591 02 09 56.37 +07 00 17.4 19.6   644 – Palomar Mountain/NEAT MPS 40610
2001 10 25.30613 02 09 55.41 +07 00 12.2 19.0   644 – Palomar Mountain/NEAT MPS 40610
2001 10 25.33297 02 09 54.10 +07 00 04.1 19.7   644 – Palomar Mountain/NEAT MPS 40610
2001 11 18.22072 01 53 18.77 +05 32 08.3 19.2   704 – Lincoln Laboratory ETS, New Mexico MPS 41962
2001 11 18.23562 01 53 18.28 +05 32 06.5 19.4   704 – Lincoln Laboratory ETS, New Mexico MPS 41962
2001 11 18.25052 01 53 17.75 +05 32 04.5 19.8   704 – Lincoln Laboratory ETS, New Mexico MPS 41962
2001 11 18.26541 01 53 17.30 +05 32 02.2 19.3   704 – Lincoln Laboratory ETS, New Mexico MPS 41962
2001 11 18.28034 01 53 16.78 +05 32 01.1 19.4   704 – Lincoln Laboratory ETS, New Mexico MPS 41962
2001 11 20.23027 01 52 15.35 +05 27 45.7 19.3   704 – Lincoln Laboratory ETS, New Mexico MPS 43983
2001 11 20.24580 01 52 14.86 +05 27 43.8 18.5   704 – Lincoln Laboratory ETS, New Mexico MPS 43983
2001 11 20.27500 01 52 13.97 +05 27 39.8 18.6   704 – Lincoln Laboratory ETS, New Mexico MPS 43983
2004 02 16.44476 10 52 27.93 +07 59 28.7 21.7 V 691 – Steward Observatory, Kitt Peak-Spacewatch MPS 132549
2004 02 16.50377 10 52 25.55 +07 59 46.0 21.2 V 691 – Steward Observatory, Kitt Peak-Spacewatch MPS 132549
2004 02 16.53145 10 52 24.45 +07 59 53.9 21.2 V 691 – Steward Observatory, Kitt Peak-Spacewatch MPS 132549
2004 02 18.35667 10 51 11.53 +08 09 01.8 20.4   704 – Lincoln Laboratory ETS, New Mexico MPS 98738
2004 02 18.36834 10 51 11.03 +08 09 04.8 20.4   704 – Lincoln Laboratory ETS, New Mexico MPS 98738
2004 02 18.37999 10 51 10.52 +08 09 08.6 20.0   704 – Lincoln Laboratory ETS, New Mexico MPS 98738
2004 02 23.30523 10 47 46.80 +08 34 17.4 19.9   704 – Lincoln Laboratory ETS, New Mexico MPS 100018
2004 02 23.31903 10 47 46.18 +08 34 20.9 20.3   704 – Lincoln Laboratory ETS, New Mexico MPS 100018
2004 02 23.33326 10 47 45.61 +08 34 25.7 19.9   704 – Lincoln Laboratory ETS, New Mexico MPS 100018
2004 03 14.14544 10 33 52.56 +10 13 38.5 21.8 V 691 – Steward Observatory, Kitt Peak-Spacewatch MPS 101149
2004 03 14.16112 10 33 51.94 +10 13 43.6 22.0 V 691 – Steward Observatory, Kitt Peak-Spacewatch MPS 101149
2004 03 14.17703 10 33 51.28 +10 13 48.0 21.4 V 691 – Steward Observatory, Kitt Peak-Spacewatch MPS 101149
2004 03 30.12923 10 24 47.90 +11 16 48.5 21.5 V 691 – Steward Observatory, Kitt Peak-Spacewatch MPS 103055
2004 03 30.15709 10 24 47.12 +11 16 53.9 21.1 V 691 – Steward Observatory, Kitt Peak-Spacewatch MPS 103055
2004 03 30.18563 10 24 46.33 +11 16 59.1 20.7 V 691 – Steward Observatory, Kitt Peak-Spacewatch MPS 103055
2005 04 11.44022 14 57 06.38 -10 58 18.2 19.7 V 691 – Steward Observatory, Kitt Peak-Spacewatch MPS 131601
2005 04 11.45763 14 57 05.76 -10 58 14.2 19.7 V 691 – Steward Observatory, Kitt Peak-Spacewatch MPS 131601
2005 04 11.47505 14 57 05.14 -10 58 10.3 19.8 V 691 – Steward Observatory, Kitt Peak-Spacewatch MPS 131601
2005 04 15.45158 14 54 40.70 -10 42 14.7 19.7 V 691 – Steward Observatory, Kitt Peak-Spacewatch MPS 131601
2005 04 15.47002 14 54 39.98 -10 42 10.1 19.6 V 691 – Steward Observatory, Kitt Peak-Spacewatch MPS 131601
2005 04 15.48847 14 54 39.27 -10 42 05.4 19.8 V 691 – Steward Observatory, Kitt Peak-Spacewatch MPS 131601
2005 05 08.24685 14 38 08.83 -09 08 59.4 19.1 R 699 – Lowell Observatory-LONEOS MPS 133908
2005 05 08.26710 14 38 07.84 -09 08 54.8   699 – Lowell Observatory-LONEOS MPS 133908
2005 05 08.28738 14 38 06.88 -09 08 50.7   699 – Lowell Observatory-LONEOS MPS 133908
2005 05 08.30764 14 38 06.00 -09 08 45.3   699 – Lowell Observatory-LONEOS MPS 133908
2005 05 11.30370 14 35 51.14 -08 57 42.0 18.9 R 699 – Lowell Observatory-LONEOS MPS 133908
2005 05 11.32557 14 35 50.07 -08 57 35.8   699 – Lowell Observatory-LONEOS MPS 133908
2005 05 11.34748 14 35 49.05 -08 57 32.8   699 – Lowell Observatory-LONEOS MPS 133908
2005 05 11.36942 14 35 48.09 -08 57 27.3   699 – Lowell Observatory-LONEOS MPS 133908
2005 06 01.22129 14 22 32.07 -08 01 47.9 20.7 R G92 – Jarnac Observatory, Vail MPS 135577
2005 06 01.24843 14 22 31.26 -08 01 45.8 20.4 R G92 – Jarnac Observatory, Vail MPS 135577
2005 06 01.27615 14 22 30.41 -08 01 42.6 20.0 R G92 – Jarnac Observatory, Vail MPS 135577
2006 05 26.44419 21 39 34.41 -11 28 05.0 20.3 V G96 – Mt. Lemmon Survey MPS 173517
2006 05 26.44932 21 39 34.63 -11 28 04.1 20.5 V G96 – Mt. Lemmon Survey MPS 173517
2006 05 26.45432 21 39 34.84 -11 28 03.0 20.4 V G96 – Mt. Lemmon Survey MPS 173517
2006 05 26.45939 21 39 35.06 -11 28 02.0 20.2 V G96 – Mt. Lemmon Survey MPS 173517
2006 07 25.32249 21 44 48.37 -11 50 10.7 18.5 V G96 – Mt. Lemmon Survey MPS 175388
2006 07 25.33025 21 44 48.08 -11 50 12.5 18.8 V G96 – Mt. Lemmon Survey MPS 175388
